Time,TemperatureF,DewpointF,PressureIn,WindDirection,WindDirectionDegrees,WindSpeedMPH,WindSpeedGustMPH,Humidity,HourlyPrecipIn,Conditions,Clouds,dailyrainin,SolarRadiationWatts/m^2,SoftwareType,DateUTC
2013-04-22 00:02:00,60.2,20.1,29.90,North,353,0.0,1.0,21,0.00,,,0.00,0,WeatherCatV1.11B39,2013-04-22 07:02:00,
2013-04-22 00:07:00,59.9,19.9,29.90,North,353,2.0,2.0,21,0.00,,,0.00,0,WeatherCatV1.11B39,2013-04-22 07:07:00,
2013-04-22 00:12:00,59.7,19.7,29.90,North,353,0.0,0.0,21,0.00,,,0.00,0,WeatherCatV1.11B39,2013-04-22 07:12:00,
2013-04-22 00:17:00,59.5,20.6,29.90,North,353,2.0,3.0,22,0.00,,,0.00,0,WeatherCatV1.11B39,2013-04-22 07:17:00,
2013-04-22 00:22:00,59.5,19.5,29.90,North,353,2.0,3.0,21,0.00,,,0.00,0,WeatherCatV1.11B39,2013-04-22 07:22:00,
2013-04-22 00:27:00,59.5,19.5,29.90,North,353,1.0,1.0,21,0.00,,,0.00,0,WeatherCatV1.11B39,2013-04-22 07:27:00,
2013-04-22 00:32:00,59.1,19.2,29.90,North,353,2.0,2.0,21,0.00,,,0.00,0,WeatherCatV1.11B39,2013-04-22 07:32:00,
2013-04-22 00:37:00,59.2,19.3,29.90,North,5,0.0,1.0,21,0.00,,,0.00,0,WeatherCatV1.11B39,2013-04-22 07:37:00,
2013-04-22 00:42:00,59.5,19.5,29.90,North,5,2.0,2.0,21,0.00,,,0.00,0,WeatherCatV1.11B39,2013-04-22 07:42:00,
2013-04-22 00:47:00,59.5,19.5,29.90,North,5,0.0,1.0,21,0.00,,,0.00,0,WeatherCatV1.11B39,2013-04-22 07:47:00,
2013-04-22 00:52:00,58.9,20.1,29.90,North,5,2.0,2.0,22,0.00,,,0.00,0,WeatherCatV1.11B39,2013-04-22 07:52:00,
2013-04-22 00:57:00,58.7,20.0,29.90,North,5,3.0,4.0,22,0.00,,,0.00,0,WeatherCatV1.11B39,2013-04-22 07:57:00,
2013-04-22 01:02:00,59.5,19.5,29.90,North,5,1.0,3.0,21,0.00,,,0.00,0,WeatherCatV1.11B39,2013-04-22 08:02:00,
2013-04-22 01:07:00,60.4,19.2,29.90,North,5,1.0,2.0,20,0.00,,,0.00,0,WeatherCatV1.11B39,2013-04-22 08:07:00,
2013-04-22 01:12:00,60.7,20.5,29.89,NE,36,2.0,4.0,21,0.00,,,0.00,0,WeatherCatV1.11B39,2013-04-22 08:12:00,
2013-04-22 01:17:00,60.5,19.2,29.89,NE,37,2.0,2.0,20,0.00,,,0.00,0,WeatherCatV1.11B39,2013-04-22 08:17:00,
2013-04-22 01:22:00,60.4,20.3,29.89,NE,37,2.0,3.0,21,0.00,,,0.00,0,WeatherCatV1.11B39,2013-04-22 08:22:00,
2013-04-22 01:27:00,59.8,19.8,29.89,NE,37,2.0,3.0,21,0.00,,,0.00,0,WeatherCatV1.11B39,2013-04-22 08:27:00,
2013-04-22 01:32:00,60.0,20.0,29.89,NE,37,3.0,3.0,21,0.00,,,0.00,0,WeatherCatV1.11B39,2013-04-22 08:32:00,
2013-04-22 01:37:00,59.7,19.7,29.89,NE,37,2.0,2.0,21,0.00,,,0.00,0,WeatherCatV1.11B39,2013-04-22 08:37:00,
2013-04-22 01:42:00,59.3,20.5,29.88,NE,37,3.0,3.0,22,0.00,,,0.00,0,WeatherCatV1.11B39,2013-04-22 08:42:00,
2013-04-22 01:47:00,59.2,20.4,29.88,NE,37,1.0,3.0,22,0.00,,,0.00,0,WeatherCatV1.11B39,2013-04-22 08:47:00,
2013-04-22 01:52:00,58.7,20.0,29.88,NE,37,2.0,2.0,22,0.00,,,0.00,0,WeatherCatV1.11B39,2013-04-22 08:52:00,
2013-04-22 01:57:00,58.6,19.9,29.88,NE,37,2.0,3.0,22,0.00,,,0.00,0,WeatherCatV1.11B39,2013-04-22 08:57:00,
2013-04-22 02:02:00,58.3,19.6,29.88,NE,37,0.0,1.0,22,0.00,,,0.00,0,WeatherCatV1.11B39,2013-04-22 09:02:00,
2013-04-22 02:07:00,57.3,19.8,29.88,NE,37,1.0,1.0,23,0.00,,,0.00,0,WeatherCatV1.11B39,2013-04-22 09:07:00,
2013-04-22 02:12:00,57.0,20.6,29.88,NE,37,0.0,1.0,24,0.00,,,0.00,0,WeatherCatV1.11B39,2013-04-22 09:12:00,
2013-04-22 02:17:00,56.6,20.2,29.88,NE,37,1.0,2.0,24,0.00,,,0.00,0,WeatherCatV1.11B39,2013-04-22 09:17:00,
2013-04-22 02:22:00,56.5,20.2,29.88,NE,37,1.0,2.0,24,0.00,,,0.00,0,WeatherCatV1.11B39,2013-04-22 09:22:00,
2013-04-22 02:27:00,56.1,19.8,29.87,NE,37,1.0,1.0,24,0.00,,,0.00,0,WeatherCatV1.11B39,2013-04-22 09:27:00,
2013-04-22 02:32:00,55.5,20.3,29.87,NE,37,1.0,1.0,25,0.00,,,0.00,0,WeatherCatV1.11B39,2013-04-22 09:32:00,
2013-04-22 02:37:00,55.1,19.9,29.87,NE,37,0.0,1.0,25,0.00,,,0.00,0,WeatherCatV1.11B39,2013-04-22 09:37:00,
2013-04-22 02:42:00,54.5,20.3,29.87,NE,37,0.0,0.0,26,0.00,,,0.00,0,WeatherCatV1.11B39,2013-04-22 09:42:00,
2013-04-22 02:47:00,54.0,20.8,29.88,NE,37,0.0,1.0,27,0.00,,,0.00,0,WeatherCatV1.11B39,2013-04-22 09:47:00,
2013-04-22 02:52:00,53.8,21.5,29.87,NE,37,1.0,1.0,28,0.00,,,0.00,0,WeatherCatV1.11B39,2013-04-22 09:52:00,
2013-04-22 02:57:00,53.7,21.4,29.87,NE,37,0.0,1.0,28,0.00,,,0.00,0,WeatherCatV1.11B39,2013-04-22 09:57:00,
2013-04-22 03:02:00,53.5,20.4,29.87,NE,37,1.0,1.0,27,0.00,,,0.00,0,WeatherCatV1.11B39,2013-04-22 10:02:00,
2013-04-22 03:07:00,53.1,21.7,29.87,NE,37,2.0,3.0,29,0.00,,,0.00,0,WeatherCatV1.11B39,2013-04-22 10:07:00,
2013-04-22 03:12:00,53.2,21.8,29.87,NE,37,2.0,3.0,29,0.00,,,0.00,0,WeatherCatV1.11B39,2013-04-22 10:12:00,
2013-04-22 03:17:00,53.3,21.0,29.87,NE,37,0.0,0.0,28,0.00,,,0.00,0,WeatherCatV1.11B39,2013-04-22 10:17:00,
2013-04-22 03:22:00,52.7,21.3,29.88,NE,37,0.0,1.0,29,0.00,,,0.00,0,WeatherCatV1.11B39,2013-04-22 10:22:00,
2013-04-22 03:27:00,52.5,21.2,29.87,NE,37,2.0,2.0,29,0.00,,,0.00,0,WeatherCatV1.11B39,2013-04-22 10:27:00,
2013-04-22 03:32:00,52.1,21.6,29.87,NE,37,0.0,1.0,30,0.00,,,0.00,0,WeatherCatV1.11B39,2013-04-22 10:32:00,
2013-04-22 03:37:00,51.7,21.3,29.87,NE,37,2.0,2.0,30,0.00,,,0.00,0,WeatherCatV1.11B39,2013-04-22 10:37:00,
2013-04-22 03:42:00,52.1,21.6,29.87,NE,37,1.0,2.0,30,0.00,,,0.00,0,WeatherCatV1.11B39,2013-04-22 10:42:00,
2013-04-22 03:47:00,52.1,20.8,29.87,NE,37,1.0,1.0,29,0.00,,,0.00,0,WeatherCatV1.11B39,2013-04-22 10:47:00,
2013-04-22 03:52:00,52.3,21.0,29.87,NE,37,1.0,2.0,29,0.00,,,0.00,0,WeatherCatV1.11B39,2013-04-22 10:52:00,
2013-04-22 03:57:00,52.2,20.9,29.87,NE,37,0.0,1.0,29,0.00,,,0.00,0,WeatherCatV1.11B39,2013-04-22 10:57:00,
2013-04-22 04:02:00,51.9,21.5,29.87,NE,37,1.0,2.0,30,0.00,,,0.00,0,WeatherCatV1.11B39,2013-04-22 11:02:00,
2013-04-22 04:07:00,52.0,21.5,29.87,NE,37,0.0,2.0,30,0.00,,,0.00,0,WeatherCatV1.11B39,2013-04-22 11:07:00,
2013-04-22 04:12:00,51.8,21.4,29.87,NE,37,0.0,1.0,30,0.00,,,0.00,0,WeatherCatV1.11B39,2013-04-22 11:12:00,
2013-04-22 04:17:00,51.8,21.4,29.87,NE,37,0.0,1.0,30,0.00,,,0.00,0,WeatherCatV1.11B39,2013-04-22 11:17:00,
2013-04-22 04:22:00,51.5,21.1,29.87,NE,37,1.0,2.0,30,0.00,,,0.00,0,WeatherCatV1.11B39,2013-04-22 11:22:00,
2013-04-22 04:27:00,51.4,21.0,29.87,NE,37,0.0,1.0,30,0.00,,,0.00,0,WeatherCatV1.11B39,2013-04-22 11:27:00,
2013-04-22 04:32:00,51.2,21.6,29.87,NE,37,0.0,0.0,31,0.00,,,0.00,0,WeatherCatV1.11B39,2013-04-22 11:32:00,
2013-04-22 04:37:00,51.2,20.8,29.87,NE,37,0.0,1.0,30,0.00,,,0.00,0,WeatherCatV1.11B39,2013-04-22 11:37:00,
2013-04-22 04:42:00,50.9,22.1,29.87,NE,37,1.0,1.0,32,0.00,,,0.00,0,WeatherCatV1.11B39,2013-04-22 11:42:00,
2013-04-22 04:47:00,51.0,22.2,29.87,NE,37,0.0,1.0,32,0.00,,,0.00,0,WeatherCatV1.11B39,2013-04-22 11:47:00,
2013-04-22 04:52:00,51.2,21.6,29.87,NE,37,0.0,1.0,31,0.00,,,0.00,0,WeatherCatV1.11B39,2013-04-22 11:52:00,
2013-04-22 04:57:00,51.3,22.5,29.87,NE,37,1.0,3.0,32,0.00,,,0.00,0,WeatherCatV1.11B39,2013-04-22 11:57:00,
2013-04-22 05:02:00,51.6,22.0,29.87,NE,37,1.0,4.0,31,0.00,,,0.00,0,WeatherCatV1.11B39,2013-04-22 12:02:00,
2013-04-22 05:07:00,52.1,22.4,29.87,NE,37,2.0,3.0,31,0.00,,,0.00,0,WeatherCatV1.11B39,2013-04-22 12:07:00,
2013-04-22 05:12:00,51.9,22.2,29.87,NE,37,1.0,2.0,31,0.00,,,0.00,0,WeatherCatV1.11B39,2013-04-22 12:12:00,
2013-04-22 05:17:00,51.8,22.1,29.87,NE,37,1.0,2.0,31,0.00,,,0.00,0,WeatherCatV1.11B39,2013-04-22 12:17:00,
2013-04-22 05:22:00,51.6,22.0,29.87,NE,37,3.0,3.0,31,0.00,,,0.00,0,WeatherCatV1.11B39,2013-04-22 12:22:00,
2013-04-22 05:27:00,51.7,22.1,29.87,NE,37,2.0,3.0,31,0.00,,,0.00,0,WeatherCatV1.11B39,2013-04-22 12:27:00,
2013-04-22 05:32:00,51.8,22.1,29.87,NE,37,1.0,3.0,31,0.00,,,0.00,0,WeatherCatV1.11B39,2013-04-22 12:32:00,
2013-04-22 05:37:00,51.5,22.6,29.87,NE,37,3.0,4.0,32,0.00,,,0.00,0,WeatherCatV1.11B39,2013-04-22 12:37:00,
2013-04-22 05:42:00,51.6,23.4,29.87,NE,37,1.0,2.0,33,0.00,,,0.00,0,WeatherCatV1.11B39,2013-04-22 12:42:00,
2013-04-22 05:47:00,52.1,23.9,29.87,NE,37,3.0,3.0,33,0.00,,,0.00,5,WeatherCatV1.11B39,2013-04-22 12:47:00,
2013-04-22 05:52:00,52.5,23.5,29.88,NE,37,2.0,3.0,32,0.00,,,0.00,9,WeatherCatV1.11B39,2013-04-22 12:52:00,
2013-04-22 05:57:00,52.5,22.8,29.88,NE,37,1.0,1.0,31,0.00,,,0.00,12,WeatherCatV1.11B39,2013-04-22 12:57:00,
2013-04-22 06:02:00,52.3,23.3,29.88,NE,37,1.0,2.0,32,0.00,,,0.00,14,WeatherCatV1.11B39,2013-04-22 13:02:00,
2013-04-22 06:07:00,52.5,22.8,29.88,NE,37,0.0,0.0,31,0.00,,,0.00,19,WeatherCatV1.11B39,2013-04-22 13:07:00,
2013-04-22 06:12:00,52.3,23.3,29.88,NE,37,1.0,1.0,32,0.00,,,0.00,21,WeatherCatV1.11B39,2013-04-22 13:12:00,
2013-04-22 06:17:00,52.1,24.6,29.88,NE,37,0.0,3.0,34,0.00,,,0.00,25,WeatherCatV1.11B39,2013-04-22 13:17:00,
2013-04-22 06:22:00,52.3,24.8,29.88,NE,37,0.0,1.0,34,0.00,,,0.00,28,WeatherCatV1.11B39,2013-04-22 13:22:00,
2013-04-22 06:27:00,52.9,25.3,29.88,NE,37,1.0,1.0,34,0.00,,,0.00,44,WeatherCatV1.11B39,2013-04-22 13:27:00,
2013-04-22 06:32:00,54.0,26.3,29.88,NE,37,1.0,1.0,34,0.00,,,0.00,91,WeatherCatV1.11B39,2013-04-22 13:32:00,
2013-04-22 06:37:00,54.9,27.1,29.88,NE,37,1.0,1.0,34,0.00,,,0.00,107,WeatherCatV1.11B39,2013-04-22 13:37:00,
2013-04-22 06:42:00,57.9,27.5,29.89,NE,37,0.0,0.0,31,0.00,,,0.00,125,WeatherCatV1.11B39,2013-04-22 13:42:00,
2013-04-22 06:47:00,58.9,27.5,29.89,NE,37,0.0,0.0,30,0.00,,,0.00,146,WeatherCatV1.11B39,2013-04-22 13:47:00,
2013-04-22 06:52:00,58.4,28.7,29.89,NE,37,1.0,2.0,32,0.00,,,0.00,163,WeatherCatV1.11B39,2013-04-22 13:52:00,
2013-04-22 06:57:00,58.9,29.9,29.89,NE,42,0.0,0.0,33,0.00,,,0.00,178,WeatherCatV1.11B39,2013-04-22 13:57:00,
2013-04-22 07:02:00,60.2,29.5,29.89,NNW,343,0.0,0.0,31,0.00,,,0.00,197,WeatherCatV1.11B39,2013-04-22 14:02:00,
2013-04-22 07:07:00,61.4,28.9,29.89,NNW,343,0.0,0.0,29,0.00,,,0.00,213,WeatherCatV1.11B39,2013-04-22 14:07:00,
2013-04-22 07:12:00,62.6,28.2,29.89,NNW,343,0.0,0.0,27,0.00,,,0.00,227,WeatherCatV1.11B39,2013-04-22 14:12:00,
2013-04-22 07:17:00,64.1,27.6,29.89,NNW,343,0.0,0.0,25,0.00,,,0.00,248,WeatherCatV1.11B39,2013-04-22 14:17:00,
2013-04-22 07:22:00,65.0,28.3,29.89,NNW,343,0.0,1.0,25,0.00,,,0.00,262,WeatherCatV1.11B39,2013-04-22 14:22:00,
2013-04-22 07:27:00,65.9,30.0,29.89,NNW,343,0.0,0.0,26,0.00,,,0.00,279,WeatherCatV1.11B39,2013-04-22 14:27:00,
2013-04-22 07:32:00,66.7,29.8,29.89,NNW,343,0.0,1.0,25,0.00,,,0.00,297,WeatherCatV1.11B39,2013-04-22 14:32:00,
2013-04-22 07:37:00,67.6,29.5,29.89,NNW,343,1.0,2.0,24,0.00,,,0.00,315,WeatherCatV1.11B39,2013-04-22 14:37:00,
2013-04-22 07:42:00,68.0,28.8,29.89,NNW,343,2.0,2.0,23,0.00,,,0.00,330,WeatherCatV1.11B39,2013-04-22 14:42:00,
2013-04-22 07:47:00,68.5,28.2,29.89,NNW,343,0.0,1.0,22,0.00,,,0.00,350,WeatherCatV1.11B39,2013-04-22 14:47:00,
2013-04-22 07:52:00,69.2,27.6,29.89,NNW,343,1.0,2.0,21,0.00,,,0.00,366,WeatherCatV1.11B39,2013-04-22 14:52:00,
2013-04-22 07:57:00,69.4,27.8,29.89,NNW,343,1.0,2.0,21,0.00,,,0.00,387,WeatherCatV1.11B39,2013-04-22 14:57:00,
2013-04-22 08:02:00,70.1,28.4,29.89,NNW,343,2.0,3.0,21,0.00,,,0.00,403,WeatherCatV1.11B39,2013-04-22 15:02:00,
2013-04-22 08:07:00,70.9,27.8,29.89,NNW,343,1.0,3.0,20,0.00,,,0.00,420,WeatherCatV1.11B39,2013-04-22 15:07:00,
2013-04-22 08:12:00,71.3,26.9,29.90,NNW,343,1.0,2.0,19,0.00,,,0.00,439,WeatherCatV1.11B39,2013-04-22 15:12:00,
2013-04-22 08:17:00,71.7,25.9,29.89,NNW,343,1.0,2.0,18,0.00,,,0.00,455,WeatherCatV1.11B39,2013-04-22 15:17:00,
2013-04-22 08:22:00,72.4,27.8,29.89,NNW,343,2.0,3.0,19,0.00,,,0.00,469,WeatherCatV1.11B39,2013-04-22 15:22:00,
2013-04-22 08:27:00,73.3,27.2,29.89,NNW,343,2.0,3.0,18,0.00,,,0.00,490,WeatherCatV1.11B39,2013-04-22 15:27:00,
2013-04-22 08:32:00,74.9,28.5,29.89,NW,315,2.0,4.0,18,0.00,,,0.00,504,WeatherCatV1.11B39,2013-04-22 15:32:00,
2013-04-22 08:37:00,75.4,26.1,29.89,WNW,296,2.0,3.0,16,0.00,,,0.00,522,WeatherCatV1.11B39,2013-04-22 15:37:00,
2013-04-22 08:42:00,75.5,26.2,29.89,WNW,286,3.0,4.0,16,0.00,,,0.00,540,WeatherCatV1.11B39,2013-04-22 15:42:00,
2013-04-22 08:47:00,75.6,24.7,29.89,West,259,1.0,3.0,15,0.00,,,0.00,555,WeatherCatV1.11B39,2013-04-22 15:47:00,
2013-04-22 08:52:00,76.4,25.3,29.89,WSW,238,3.0,5.0,15,0.00,,,0.00,570,WeatherCatV1.11B39,2013-04-22 15:52:00,
2013-04-22 08:57:00,77.5,22.8,29.89,WSW,237,3.0,3.0,13,0.00,,,0.00,587,WeatherCatV1.11B39,2013-04-22 15:57:00,
2013-04-22 09:02:00,77.3,20.7,29.89,WSW,240,2.0,3.0,12,0.00,,,0.00,603,WeatherCatV1.11B39,2013-04-22 16:02:00,
2013-04-22 09:07:00,77.3,22.6,29.89,WNW,285,2.0,4.0,13,0.00,,,0.00,615,WeatherCatV1.11B39,2013-04-22 16:07:00,
2013-04-22 09:12:00,78.4,21.6,29.89,WNW,283,1.0,2.0,12,0.00,,,0.00,633,WeatherCatV1.11B39,2013-04-22 16:12:00,
2013-04-22 09:17:00,78.7,21.8,29.89,West,264,2.0,4.0,12,0.00,,,0.00,647,WeatherCatV1.11B39,2013-04-22 16:17:00,
2013-04-22 09:22:00,78.6,21.7,29.89,WNW,283,2.0,4.0,12,0.00,,,0.00,661,WeatherCatV1.11B39,2013-04-22 16:22:00,
2013-04-22 09:27:00,78.5,21.7,29.89,WNW,301,2.0,4.0,12,0.00,,,0.00,679,WeatherCatV1.11B39,2013-04-22 16:27:00,
2013-04-22 09:32:00,79.9,20.7,29.89,SW,234,3.0,6.0,11,0.00,,,0.00,691,WeatherCatV1.11B39,2013-04-22 16:32:00,
2013-04-22 09:37:00,79.6,20.5,29.89,West,260,3.0,5.0,11,0.00,,,0.00,705,WeatherCatV1.11B39,2013-04-22 16:37:00,
2013-04-22 09:42:00,79.8,20.6,29.89,WSW,247,0.0,6.0,11,0.00,,,0.00,719,WeatherCatV1.11B39,2013-04-22 16:42:00,
2013-04-22 09:47:00,80.0,20.8,29.88,SSW,193,5.0,5.0,11,0.00,,,0.00,733,WeatherCatV1.11B39,2013-04-22 16:47:00,
2013-04-22 09:52:00,81.3,19.5,29.89,SW,216,1.0,5.0,10,0.00,,,0.00,744,WeatherCatV1.11B39,2013-04-22 16:52:00,
2013-04-22 09:57:00,80.9,19.2,29.88,East,80,3.0,3.0,10,0.00,,,0.00,758,WeatherCatV1.11B39,2013-04-22 16:57:00,
2013-04-22 10:02:00,81.0,21.5,29.88,West,269,1.0,6.0,11,0.00,,,0.00,770,WeatherCatV1.11B39,2013-04-22 17:02:00,
2013-04-22 10:07:00,81.1,19.4,29.88,WSW,249,0.0,3.0,10,0.00,,,0.00,780,WeatherCatV1.11B39,2013-04-22 17:07:00,
2013-04-22 10:12:00,81.8,19.9,29.88,West,270,6.0,6.0,10,0.00,,,0.00,793,WeatherCatV1.11B39,2013-04-22 17:12:00,
2013-04-22 10:17:00,82.2,20.2,29.88,West,267,0.0,2.0,10,0.00,,,0.00,803,WeatherCatV1.11B39,2013-04-22 17:17:00,
2013-04-22 10:22:00,82.2,20.2,29.88,WNW,292,2.0,3.0,10,0.00,,,0.00,814,WeatherCatV1.11B39,2013-04-22 17:22:00,
2013-04-22 10:27:00,82.3,20.3,29.87,NNE,18,3.0,5.0,10,0.00,,,0.00,826,WeatherCatV1.11B39,2013-04-22 17:27:00,
2013-04-22 10:32:00,83.3,18.6,29.88,NW,315,1.0,3.0,9,0.00,,,0.00,833,WeatherCatV1.11B39,2013-04-22 17:32:00,
2013-04-22 10:37:00,83.1,18.4,29.87,NNW,343,2.0,4.0,9,0.00,,,0.00,842,WeatherCatV1.11B39,2013-04-22 17:37:00,
2013-04-22 10:42:00,83.0,20.8,29.87,West,270,2.0,5.0,10,0.00,,,0.00,856,WeatherCatV1.11B39,2013-04-22 17:42:00,
2013-04-22 10:47:00,84.9,19.8,29.87,WSW,244,2.0,7.0,9,0.00,,,0.00,865,WeatherCatV1.11B39,2013-04-22 17:47:00,
2013-04-22 10:52:00,83.9,19.0,29.87,NW,311,1.0,4.0,9,0.00,,,0.00,870,WeatherCatV1.11B39,2013-04-22 17:52:00,
2013-04-22 10:57:00,83.5,21.2,29.87,NE,54,0.0,3.0,10,0.00,,,0.00,879,WeatherCatV1.11B39,2013-04-22 17:57:00,
2013-04-22 11:02:00,85.5,20.2,29.86,North,3,4.0,4.0,9,0.00,,,0.00,886,WeatherCatV1.11B39,2013-04-22 18:02:00,
2013-04-22 11:07:00,85.4,17.4,29.86,North,4,0.0,3.0,8,0.00,,,0.00,895,WeatherCatV1.11B39,2013-04-22 18:07:00,
2013-04-22 11:12:00,85.2,20.0,29.86,South,173,2.0,6.0,9,0.00,,,0.00,902,WeatherCatV1.11B39,2013-04-22 18:12:00,
2013-04-22 11:17:00,85.2,20.0,29.86,SSW,195,1.0,5.0,9,0.00,,,0.00,907,WeatherCatV1.11B39,2013-04-22 18:17:00,
2013-04-22 11:22:00,85.6,20.3,29.85,SSE,149,4.0,5.0,9,0.00,,,0.00,912,WeatherCatV1.11B39,2013-04-22 18:22:00,
2013-04-22 11:27:00,85.5,20.2,29.85,SE,143,3.0,4.0,9,0.00,,,0.00,919,WeatherCatV1.11B39,2013-04-22 18:27:00,
2013-04-22 11:32:00,86.5,18.2,29.85,SW,235,8.0,8.0,8,0.00,,,0.00,925,WeatherCatV1.11B39,2013-04-22 18:32:00,
2013-04-22 11:37:00,85.7,17.6,29.85,East,86,0.0,6.0,8,0.00,,,0.00,926,WeatherCatV1.11B39,2013-04-22 18:37:00,
2013-04-22 11:42:00,85.9,17.8,29.84,West,271,0.0,9.0,8,0.00,,,0.00,935,WeatherCatV1.11B39,2013-04-22 18:42:00,
2013-04-22 11:47:00,86.2,18.0,29.84,NW,317,6.0,9.0,8,0.00,,,0.00,935,WeatherCatV1.11B39,2013-04-22 18:47:00,
2013-04-22 11:52:00,86.7,18.4,29.84,SSW,192,6.0,9.0,8,0.00,,,0.00,939,WeatherCatV1.11B39,2013-04-22 18:52:00,
2013-04-22 11:57:00,86.6,18.3,29.83,West,274,7.0,7.0,8,0.00,,,0.00,940,WeatherCatV1.11B39,2013-04-22 18:57:00,
2013-04-22 12:02:00,86.2,20.8,29.83,South,178,4.0,4.0,9,0.00,,,0.00,942,WeatherCatV1.11B39,2013-04-22 19:02:00,
2013-04-22 12:07:00,87.9,19.3,29.83,WSW,240,5.0,10.0,8,0.00,,,0.00,942,WeatherCatV1.11B39,2013-04-22 19:07:00,
2013-04-22 12:12:00,87.9,19.3,29.83,WNW,288,5.0,9.0,8,0.00,,,0.00,942,WeatherCatV1.11B39,2013-04-22 19:12:00,
2013-04-22 12:17:00,88.0,19.3,29.83,West,280,6.0,7.0,8,0.00,,,0.00,947,WeatherCatV1.11B39,2013-04-22 19:17:00,
2013-04-22 12:22:00,88.3,16.5,29.82,SSW,197,1.0,10.0,7,0.00,,,0.00,947,WeatherCatV1.11B39,2013-04-22 19:22:00,
2013-04-22 12:27:00,89.2,17.1,29.82,North,353,5.0,8.0,7,0.00,,,0.00,949,WeatherCatV1.11B39,2013-04-22 19:27:00,
2013-04-22 12:32:00,87.6,19.0,29.82,NNW,328,6.0,10.0,8,0.00,,,0.00,949,WeatherCatV1.11B39,2013-04-22 19:32:00,
2013-04-22 12:37:00,87.8,16.1,29.81,NE,44,2.0,3.0,7,0.00,,,0.00,944,WeatherCatV1.11B39,2013-04-22 19:37:00,
2013-04-22 12:42:00,87.0,18.6,29.81,NW,321,4.0,10.0,8,0.00,,,0.00,944,WeatherCatV1.11B39,2013-04-22 19:42:00,
2013-04-22 12:47:00,87.7,19.1,29.81,NW,311,6.0,8.0,8,0.00,,,0.00,942,WeatherCatV1.11B39,2013-04-22 19:47:00,
2013-04-22 12:52:00,87.9,19.3,29.80,NW,326,2.0,8.0,8,0.00,,,0.00,940,WeatherCatV1.11B39,2013-04-22 19:52:00,
2013-04-22 12:57:00,88.9,16.9,29.80,SW,230,6.0,9.0,7,0.00,,,0.00,935,WeatherCatV1.11B39,2013-04-22 19:57:00,
2013-04-22 13:02:00,89.9,17.6,29.80,SW,224,3.0,3.0,7,0.00,,,0.00,930,WeatherCatV1.11B39,2013-04-22 20:02:00,
2013-04-22 13:07:00,88.7,16.7,29.80,WSW,238,2.0,5.0,7,0.00,,,0.00,930,WeatherCatV1.11B39,2013-04-22 20:07:00,
2013-04-22 13:12:00,89.7,17.5,29.80,West,267,5.0,13.0,7,0.00,,,0.00,925,WeatherCatV1.11B39,2013-04-22 20:12:00,
2013-04-22 13:17:00,89.0,17.0,29.79,SW,217,6.0,6.0,7,0.00,,,0.00,921,WeatherCatV1.11B39,2013-04-22 20:17:00,
2013-04-22 13:22:00,88.5,16.6,29.79,WNW,290,8.0,11.0,7,0.00,,,0.00,918,WeatherCatV1.11B39,2013-04-22 20:22:00,
2013-04-22 13:27:00,88.6,16.7,29.79,WNW,282,4.0,10.0,7,0.00,,,0.00,911,WeatherCatV1.11B39,2013-04-22 20:27:00,
2013-04-22 13:32:00,89.9,17.6,29.79,WSW,239,3.0,12.0,7,0.00,,,0.00,905,WeatherCatV1.11B39,2013-04-22 20:32:00,
2013-04-22 13:37:00,89.8,17.5,29.78,SW,230,5.0,5.0,7,0.00,,,0.00,896,WeatherCatV1.11B39,2013-04-22 20:37:00,
2013-04-22 13:42:00,91.0,18.4,29.78,WNW,297,7.0,11.0,7,0.00,,,0.00,888,WeatherCatV1.11B39,2013-04-22 20:42:00,
2013-04-22 13:47:00,90.0,14.1,29.78,WNW,294,9.0,14.0,6,0.00,,,0.00,881,WeatherCatV1.11B39,2013-04-22 20:47:00,
2013-04-22 13:52:00,89.3,17.2,29.78,NNW,343,0.0,4.0,7,0.00,,,0.00,874,WeatherCatV1.11B39,2013-04-22 20:52:00,
2013-04-22 13:57:00,90.2,14.3,29.78,WSW,251,15.0,15.0,6,0.00,,,0.00,870,WeatherCatV1.11B39,2013-04-22 20:57:00,
2013-04-22 14:02:00,89.8,14.0,29.77,SW,229,6.0,10.0,6,0.00,,,0.00,863,WeatherCatV1.11B39,2013-04-22 21:02:00,
2013-04-22 14:07:00,91.0,14.9,29.77,South,175,6.0,7.0,6,0.00,,,0.00,854,WeatherCatV1.11B39,2013-04-22 21:07:00,
2013-04-22 14:12:00,90.8,14.7,29.76,SW,226,5.0,7.0,6,0.00,,,0.00,840,WeatherCatV1.11B39,2013-04-22 21:12:00,
2013-04-22 14:17:00,91.1,14.9,29.76,NW,323,7.0,13.0,6,0.00,,,0.00,833,WeatherCatV1.11B39,2013-04-22 21:17:00,
2013-04-22 14:22:00,90.4,14.4,29.76,West,261,3.0,5.0,6,0.00,,,0.00,821,WeatherCatV1.11B39,2013-04-22 21:22:00,
2013-04-22 14:27:00,90.7,14.6,29.75,WNW,286,4.0,11.0,6,0.00,,,0.00,812,WeatherCatV1.11B39,2013-04-22 21:27:00,
2013-04-22 14:32:00,90.3,14.4,29.75,North,353,2.0,5.0,6,0.00,,,0.00,800,WeatherCatV1.11B39,2013-04-22 21:32:00,
2013-04-22 14:37:00,89.8,14.0,29.75,WNW,287,1.0,4.0,6,0.00,,,0.00,789,WeatherCatV1.11B39,2013-04-22 21:37:00,
2013-04-22 14:42:00,90.1,14.2,29.75,WNW,293,8.0,8.0,6,0.00,,,0.00,780,WeatherCatV1.11B39,2013-04-22 21:42:00,
2013-04-22 14:47:00,91.1,14.9,29.74,NW,305,4.0,15.0,6,0.00,,,0.00,770,WeatherCatV1.11B39,2013-04-22 21:47:00,
2013-04-22 14:52:00,91.2,15.0,29.74,WNW,292,8.0,12.0,6,0.00,,,0.00,752,WeatherCatV1.11B39,2013-04-22 21:52:00,
2013-04-22 14:57:00,91.3,10.9,29.74,WNW,284,6.0,11.0,5,0.00,,,0.00,744,WeatherCatV1.11B39,2013-04-22 21:57:00,
2013-04-22 15:02:00,90.7,10.5,29.73,WNW,289,4.0,7.0,5,0.00,,,0.00,731,WeatherCatV1.11B39,2013-04-22 22:02:00,
2013-04-22 15:07:00,91.0,10.7,29.73,NW,321,8.0,12.0,5,0.00,,,0.00,721,WeatherCatV1.11B39,2013-04-22 22:07:00,
2013-04-22 15:12:00,90.6,10.5,29.73,WNW,282,12.0,13.0,5,0.00,,,0.00,703,WeatherCatV1.11B39,2013-04-22 22:12:00,
2013-04-22 15:17:00,90.6,10.5,29.72,West,270,8.0,8.0,5,0.00,,,0.00,693,WeatherCatV1.11B39,2013-04-22 22:17:00,
2013-04-22 15:22:00,91.5,11.1,29.72,WNW,286,15.0,15.0,5,0.00,,,0.00,677,WeatherCatV1.11B39,2013-04-22 22:22:00,
2013-04-22 15:27:00,91.0,10.7,29.72,NW,307,6.0,9.0,5,0.00,,,0.00,668,WeatherCatV1.11B39,2013-04-22 22:27:00,
2013-04-22 15:32:00,91.1,5.9,29.72,West,276,12.0,17.0,4,0.00,,,0.00,650,WeatherCatV1.11B39,2013-04-22 22:32:00,
2013-04-22 15:37:00,90.8,5.7,29.72,WNW,289,10.0,16.0,4,0.00,,,0.00,638,WeatherCatV1.11B39,2013-04-22 22:37:00,
2013-04-22 15:42:00,90.3,5.3,29.72,West,271,6.0,13.0,4,0.00,,,0.00,619,WeatherCatV1.11B39,2013-04-22 22:42:00,
2013-04-22 15:47:00,91.3,6.0,29.71,NW,324,6.0,10.0,4,0.00,,,0.00,606,WeatherCatV1.11B39,2013-04-22 22:47:00,
2013-04-22 15:52:00,91.3,6.0,29.71,NW,304,10.0,16.0,4,0.00,,,0.00,591,WeatherCatV1.11B39,2013-04-22 22:52:00,
2013-04-22 15:57:00,90.5,5.5,29.71,WNW,286,9.0,13.0,4,0.00,,,0.00,573,WeatherCatV1.11B39,2013-04-22 22:57:00,
2013-04-22 16:02:00,91.3,6.0,29.71,WSW,242,9.0,19.0,4,0.00,,,0.00,561,WeatherCatV1.11B39,2013-04-22 23:02:00,
2013-04-22 16:07:00,91.1,5.9,29.71,West,268,4.0,12.0,4,0.00,,,0.00,540,WeatherCatV1.11B39,2013-04-22 23:07:00,
2013-04-22 16:13:00,90.8,10.6,29.70,NW,305,5.0,9.0,5,0.00,,,0.00,526,WeatherCatV1.11B39,2013-04-22 23:13:00,
2013-04-22 16:18:00,90.8,10.6,29.70,WSW,256,7.0,12.0,5,0.00,,,0.00,510,WeatherCatV1.11B39,2013-04-22 23:18:00,
2013-04-22 16:23:00,89.9,10.0,29.70,WSW,246,6.0,9.0,5,0.00,,,0.00,490,WeatherCatV1.11B39,2013-04-22 23:23:00,
2013-04-22 16:28:00,90.3,10.3,29.70,WNW,292,8.0,11.0,5,0.00,,,0.00,476,WeatherCatV1.11B39,2013-04-22 23:28:00,
2013-04-22 16:32:00,90.2,10.2,29.70,West,259,7.0,10.0,5,0.00,,,0.00,459,WeatherCatV1.11B39,2013-04-22 23:32:00,
2013-04-22 16:37:00,90.4,10.3,29.70,SW,236,7.0,10.0,5,0.00,,,0.00,439,WeatherCatV1.11B39,2013-04-22 23:37:00,
2013-04-22 16:43:00,90.1,10.1,29.69,WNW,285,9.0,13.0,5,0.00,,,0.00,424,WeatherCatV1.11B39,2013-04-22 23:43:00,
2013-04-22 16:48:00,90.5,10.4,29.69,WNW,287,6.0,11.0,5,0.00,,,0.00,406,WeatherCatV1.11B39,2013-04-22 23:48:00,
2013-04-22 16:53:00,91.1,10.8,29.69,SW,236,8.0,13.0,5,0.00,,,0.00,388,WeatherCatV1.11B39,2013-04-22 23:53:00,
2013-04-22 16:58:00,90.7,10.5,29.69,West,265,7.0,8.0,5,0.00,,,0.00,373,WeatherCatV1.11B39,2013-04-22 23:58:00,
2013-04-22 17:03:00,90.5,14.5,29.69,WNW,294,7.0,9.0,6,0.00,,,0.00,355,WeatherCatV1.11B39,2013-04-23 00:03:00,
2013-04-22 17:08:00,90.5,10.4,29.69,WSW,255,5.0,11.0,5,0.00,,,0.00,334,WeatherCatV1.11B39,2013-04-23 00:08:00,
2013-04-22 17:13:00,89.5,13.8,29.69,West,275,13.0,13.0,6,0.00,,,0.00,320,WeatherCatV1.11B39,2013-04-23 00:13:00,
2013-04-22 17:18:00,89.4,13.7,29.69,WNW,303,8.0,9.0,6,0.00,,,0.00,304,WeatherCatV1.11B39,2013-04-23 00:18:00,
2013-04-22 17:23:00,89.5,13.8,29.69,WSW,238,10.0,11.0,6,0.00,,,0.00,281,WeatherCatV1.11B39,2013-04-23 00:23:00,
2013-04-22 17:28:00,89.7,13.9,29.69,WNW,292,6.0,8.0,6,0.00,,,0.00,267,WeatherCatV1.11B39,2013-04-23 00:28:00,
2013-04-22 17:33:00,89.6,13.9,29.69,WNW,290,11.0,15.0,6,0.00,,,0.00,251,WeatherCatV1.11B39,2013-04-23 00:33:00,
2013-04-22 17:38:00,88.7,13.2,29.69,West,279,4.0,15.0,6,0.00,,,0.00,229,WeatherCatV1.11B39,2013-04-23 00:38:00,
2013-04-22 17:43:00,88.6,13.2,29.69,West,278,5.0,10.0,6,0.00,,,0.00,209,WeatherCatV1.11B39,2013-04-23 00:43:00,
2013-04-22 17:48:00,88.6,13.2,29.69,West,261,4.0,10.0,6,0.00,,,0.00,190,WeatherCatV1.11B39,2013-04-23 00:48:00,
2013-04-22 17:53:00,88.3,16.5,29.68,WNW,284,5.0,13.0,7,0.00,,,0.00,167,WeatherCatV1.11B39,2013-04-23 00:53:00,
2013-04-22 17:58:00,88.1,16.3,29.68,NW,308,9.0,13.0,7,0.00,,,0.00,148,WeatherCatV1.11B39,2013-04-23 00:58:00,
2013-04-22 18:03:00,87.7,16.0,29.68,WNW,292,7.0,13.0,7,0.00,,,0.00,107,WeatherCatV1.11B39,2013-04-23 01:03:00,
2013-04-22 18:08:00,87.4,15.8,29.68,NW,309,5.0,11.0,7,0.00,,,0.00,97,WeatherCatV1.11B39,2013-04-23 01:08:00,
2013-04-22 18:13:00,87.0,15.5,29.68,NW,306,5.0,10.0,7,0.00,,,0.00,47,WeatherCatV1.11B39,2013-04-23 01:13:00,
2013-04-22 18:18:00,86.5,15.1,29.68,WNW,303,5.0,11.0,7,0.00,,,0.00,70,WeatherCatV1.11B39,2013-04-23 01:18:00,
2013-04-22 18:23:00,86.3,15.0,29.68,West,271,6.0,11.0,7,0.00,,,0.00,54,WeatherCatV1.11B39,2013-04-23 01:23:00,
2013-04-22 18:28:00,86.0,14.8,29.68,NW,319,8.0,11.0,7,0.00,,,0.00,33,WeatherCatV1.11B39,2013-04-23 01:28:00,
2013-04-22 18:33:00,85.6,14.5,29.68,West,266,5.0,10.0,7,0.00,,,0.00,26,WeatherCatV1.11B39,2013-04-23 01:33:00,
2013-04-22 18:38:00,85.1,17.2,29.68,WNW,284,8.0,9.0,8,0.00,,,0.00,21,WeatherCatV1.11B39,2013-04-23 01:38:00,
2013-04-22 18:43:00,84.7,16.9,29.68,West,275,7.0,7.0,8,0.00,,,0.00,16,WeatherCatV1.11B39,2013-04-23 01:43:00,
2013-04-22 18:48:00,84.3,16.6,29.68,WNW,296,7.0,9.0,8,0.00,,,0.00,12,WeatherCatV1.11B39,2013-04-23 01:48:00,
2013-04-22 18:53:00,83.9,16.3,29.68,WNW,297,3.0,7.0,8,0.00,,,0.00,9,WeatherCatV1.11B39,2013-04-23 01:53:00,
2013-04-22 18:58:00,83.4,15.9,29.68,West,280,4.0,6.0,8,0.00,,,0.00,5,WeatherCatV1.11B39,2013-04-23 01:58:00,
2013-04-22 19:03:00,82.8,18.2,29.68,WNW,288,2.0,4.0,9,0.00,,,0.00,0,WeatherCatV1.11B39,2013-04-23 02:03:00,
2013-04-22 19:08:00,82.1,17.7,29.68,WNW,289,2.0,4.0,9,0.00,,,0.00,0,WeatherCatV1.11B39,2013-04-23 02:08:00,
2013-04-22 19:13:00,81.3,17.1,29.68,WNW,287,4.0,4.0,9,0.00,,,0.00,0,WeatherCatV1.11B39,2013-04-23 02:13:00,
2013-04-22 19:18:00,80.6,19.0,29.68,WNW,289,2.0,4.0,10,0.00,,,0.00,0,WeatherCatV1.11B39,2013-04-23 02:18:00,
2013-04-22 19:23:00,80.1,18.6,29.68,West,281,5.0,5.0,10,0.00,,,0.00,0,WeatherCatV1.11B39,2013-04-23 02:23:00,
2013-04-22 19:28:00,79.4,18.1,29.68,WNW,282,2.0,3.0,10,0.00,,,0.00,0,WeatherCatV1.11B39,2013-04-23 02:28:00,
2013-04-22 19:33:00,78.9,19.9,29.69,WNW,283,2.0,3.0,11,0.00,,,0.00,0,WeatherCatV1.11B39,2013-04-23 02:33:00,
2013-04-22 19:38:00,78.5,19.6,29.69,WNW,283,2.0,3.0,11,0.00,,,0.00,0,WeatherCatV1.11B39,2013-04-23 02:38:00,
2013-04-22 19:43:00,78.1,19.3,29.69,WNW,282,1.0,5.0,11,0.00,,,0.00,0,WeatherCatV1.11B39,2013-04-23 02:43:00,
2013-04-22 19:48:00,77.7,19.0,29.70,WNW,282,1.0,3.0,11,0.00,,,0.00,0,WeatherCatV1.11B39,2013-04-23 02:48:00,
2013-04-22 19:53:00,77.3,20.7,29.70,WNW,284,3.0,4.0,12,0.00,,,0.00,0,WeatherCatV1.11B39,2013-04-23 02:53:00,
2013-04-22 19:58:00,77.2,20.7,29.70,WNW,286,3.0,4.0,12,0.00,,,0.00,0,WeatherCatV1.11B39,2013-04-23 02:58:00,
2013-04-22 20:03:00,76.7,20.3,29.70,WNW,286,4.0,4.0,12,0.00,,,0.00,0,WeatherCatV1.11B39,2013-04-23 03:03:00,
2013-04-22 20:08:00,76.2,19.9,29.70,WNW,285,4.0,4.0,12,0.00,,,0.00,0,WeatherCatV1.11B39,2013-04-23 03:08:00,
2013-04-22 20:13:00,76.1,19.8,29.71,WNW,286,2.0,5.0,12,0.00,,,0.00,0,WeatherCatV1.11B39,2013-04-23 03:13:00,
2013-04-22 20:18:00,76.1,19.8,29.71,WNW,292,2.0,5.0,12,0.00,,,0.00,0,WeatherCatV1.11B39,2013-04-23 03:18:00,
2013-04-22 20:23:00,76.2,19.9,29.71,WNW,288,4.0,5.0,12,0.00,,,0.00,0,WeatherCatV1.11B39,2013-04-23 03:23:00,
2013-04-22 20:28:00,76.1,19.8,29.71,WNW,289,3.0,4.0,12,0.00,,,0.00,0,WeatherCatV1.11B39,2013-04-23 03:28:00,
2013-04-22 20:33:00,76.1,19.8,29.71,WNW,285,3.0,5.0,12,0.00,,,0.00,0,WeatherCatV1.11B39,2013-04-23 03:33:00,
2013-04-22 20:38:00,76.1,19.8,29.71,WNW,286,3.0,4.0,12,0.00,,,0.00,0,WeatherCatV1.11B39,2013-04-23 03:38:00,
2013-04-22 20:43:00,75.7,19.5,29.72,WNW,286,0.0,4.0,12,0.00,,,0.00,0,WeatherCatV1.11B39,2013-04-23 03:43:00,
2013-04-22 20:48:00,75.1,20.9,29.72,WNW,286,0.0,1.0,13,0.00,,,0.00,0,WeatherCatV1.11B39,2013-04-23 03:48:00,
2013-04-22 20:53:00,74.0,21.8,29.72,WNW,286,0.0,1.0,14,0.00,,,0.00,0,WeatherCatV1.11B39,2013-04-23 03:53:00,
2013-04-22 20:58:00,72.2,20.4,29.72,WNW,286,0.0,0.0,14,0.00,,,0.00,0,WeatherCatV1.11B39,2013-04-23 03:58:00,
2013-04-22 21:01:00,71.6,21.5,29.72,WNW,286,0.0,0.0,15,0.00,,,0.00,0,WeatherCatV1.11B39,2013-04-23 04:01:00,
2013-04-22 21:06:00,70.2,21.9,29.72,WNW,286,0.0,0.0,16,0.00,,,0.00,0,WeatherCatV1.11B39,2013-04-23 04:06:00,
2013-04-22 21:11:00,69.5,21.3,29.73,WNW,286,0.0,0.0,16,0.00,,,0.00,0,WeatherCatV1.11B39,2013-04-23 04:11:00,
2013-04-22 21:16:00,69.1,21.0,29.73,WNW,286,1.0,2.0,16,0.00,,,0.00,0,WeatherCatV1.11B39,2013-04-23 04:16:00,
2013-04-22 21:21:00,69.0,22.4,29.73,SSW,201,1.0,2.0,17,0.00,,,0.00,0,WeatherCatV1.11B39,2013-04-23 04:21:00,
2013-04-22 21:26:00,69.0,22.4,29.73,SSW,201,0.0,1.0,17,0.00,,,0.00,0,WeatherCatV1.11B39,2013-04-23 04:26:00,
2013-04-22 21:31:00,68.0,21.6,29.73,SSW,201,1.0,2.0,17,0.00,,,0.00,0,WeatherCatV1.11B39,2013-04-23 04:31:00,
2013-04-22 21:36:00,67.5,22.5,29.74,SSW,197,1.0,2.0,18,0.00,,,0.00,0,WeatherCatV1.11B39,2013-04-23 04:36:00,
2013-04-22 21:41:00,67.4,21.1,29.74,SSW,197,1.0,2.0,17,0.00,,,0.00,0,WeatherCatV1.11B39,2013-04-23 04:41:00,
2013-04-22 21:46:00,67.4,21.1,29.74,SSW,197,1.0,2.0,17,0.00,,,0.00,0,WeatherCatV1.11B39,2013-04-23 04:46:00,
2013-04-22 21:51:00,67.4,21.1,29.74,SSW,197,0.0,1.0,17,0.00,,,0.00,0,WeatherCatV1.11B39,2013-04-23 04:51:00,
2013-04-22 21:56:00,66.8,21.9,29.74,SSW,197,0.0,0.0,18,0.00,,,0.00,0,WeatherCatV1.11B39,2013-04-23 04:56:00,
2013-04-22 22:01:00,66.1,22.6,29.74,SSW,197,2.0,2.0,19,0.00,,,0.00,0,WeatherCatV1.11B39,2013-04-23 05:01:00,
2013-04-22 22:06:00,65.5,22.2,29.74,SSW,197,0.0,1.0,19,0.00,,,0.00,0,WeatherCatV1.11B39,2013-04-23 05:06:00,
2013-04-22 22:11:00,64.6,22.6,29.74,SSW,197,0.0,1.0,20,0.00,,,0.00,0,WeatherCatV1.11B39,2013-04-23 05:11:00,
2013-04-22 22:16:00,64.4,22.5,29.75,SSW,197,0.0,0.0,20,0.00,,,0.00,0,WeatherCatV1.11B39,2013-04-23 05:16:00,
2013-04-22 22:21:00,64.5,21.3,29.75,SSW,197,1.0,1.0,19,0.00,,,0.00,0,WeatherCatV1.11B39,2013-04-23 05:21:00,
2013-04-22 22:26:00,64.4,21.3,29.75,SSW,197,1.0,1.0,19,0.00,,,0.00,0,WeatherCatV1.11B39,2013-04-23 05:26:00,
2013-04-22 22:31:00,64.4,21.3,29.75,SSW,195,0.0,1.0,19,0.00,,,0.00,0,WeatherCatV1.11B39,2013-04-23 05:31:00,
2013-04-22 22:36:00,64.5,21.3,29.74,South,181,1.0,1.0,19,0.00,,,0.00,0,WeatherCatV1.11B39,2013-04-23 05:36:00,
2013-04-22 22:41:00,64.6,21.4,29.74,South,180,1.0,2.0,19,0.00,,,0.00,0,WeatherCatV1.11B39,2013-04-23 05:41:00,
2013-04-22 22:46:00,64.5,21.3,29.74,South,180,2.0,2.0,19,0.00,,,0.00,0,WeatherCatV1.11B39,2013-04-23 05:46:00,
2013-04-22 22:51:00,64.5,20.1,29.74,South,180,1.0,2.0,18,0.00,,,0.00,0,WeatherCatV1.11B39,2013-04-23 05:51:00,
2013-04-22 22:56:00,64.2,21.1,29.74,South,179,0.0,1.0,19,0.00,,,0.00,0,WeatherCatV1.11B39,2013-04-23 05:56:00,
2013-04-22 23:01:00,63.7,20.7,29.75,South,179,0.0,1.0,19,0.00,,,0.00,0,WeatherCatV1.11B39,2013-04-23 06:01:00,
2013-04-22 23:06:00,63.5,20.5,29.75,South,178,2.0,2.0,19,0.00,,,0.00,0,WeatherCatV1.11B39,2013-04-23 06:06:00,
2013-04-22 23:11:00,63.3,21.6,29.75,SE,136,2.0,3.0,20,0.00,,,0.00,0,WeatherCatV1.11B39,2013-04-23 06:11:00,
2013-04-22 23:16:00,63.5,20.5,29.75,SE,133,4.0,4.0,19,0.00,,,0.00,0,WeatherCatV1.11B39,2013-04-23 06:16:00,
2013-04-22 23:21:00,64.3,19.9,29.75,ENE,62,4.0,5.0,18,0.00,,,0.00,0,WeatherCatV1.11B39,2013-04-23 06:21:00,
2013-04-22 23:26:00,65.6,19.6,29.75,ENE,62,2.0,2.0,17,0.00,,,0.00,0,WeatherCatV1.11B39,2013-04-23 06:26:00,
2013-04-22 23:31:00,66.1,20.0,29.75,ENE,62,2.0,3.0,17,0.00,,,0.00,0,WeatherCatV1.11B39,2013-04-23 06:31:00,
2013-04-22 23:36:00,65.4,20.8,29.75,ENE,62,2.0,3.0,18,0.00,,,0.00,0,WeatherCatV1.11B39,2013-04-23 06:36:00,
2013-04-22 23:41:00,64.5,20.1,29.75,ENE,62,1.0,1.0,18,0.00,,,0.00,0,WeatherCatV1.11B39,2013-04-23 06:41:00,
2013-04-22 23:46:00,64.0,19.7,29.75,ENE,62,2.0,2.0,18,0.00,,,0.00,0,WeatherCatV1.11B39,2013-04-23 06:46:00,
2013-04-22 23:51:00,62.9,21.2,29.75,ENE,62,2.0,3.0,20,0.00,,,0.00,0,WeatherCatV1.11B39,2013-04-23 06:51:00,
2013-04-22 23:56:00,62.2,20.6,29.75,ENE,62,1.0,3.0,20,0.00,,,0.00,0,WeatherCatV1.11B39,2013-04-23 06:56:00,